TimeCDT,TemperatureF,Dew PointF,Humidity,Sea Level PressureIn,VisibilityMPH,Wind Direction,Wind SpeedMPH,Gust SpeedMPH,PrecipitationIn,Events,Conditions,WindDirDegrees,DateUTC
12:54 AM,51.1,43.0,74,30.12,10.0,South,6.9,-,N/A,,Clear,170,2013-10-10 05:54:00
1:54 AM,50.0,43.0,77,30.13,10.0,South,4.6,-,N/A,,Clear,170,2013-10-10 06:54:00
2:54 AM,48.9,43.0,80,30.13,10.0,SSE,3.5,-,N/A,,Clear,160,2013-10-10 07:54:00
3:54 AM,46.9,42.1,83,30.13,10.0,Calm,Calm,-,N/A,,Clear,0,2013-10-10 08:54:00
4:54 AM,45.0,42.1,90,30.14,10.0,Calm,Calm,-,N/A,,Clear,0,2013-10-10 09:54:00
5:54 AM,44.1,41.0,89,30.15,10.0,Calm,Calm,-,N/A,,Clear,0,2013-10-10 10:54:00
6:54 AM,45.0,42.1,90,30.15,9.0,East,3.5,-,N/A,,Clear,80,2013-10-10 11:54:00
7:54 AM,45.0,43.0,93,30.15,5.0,Calm,Calm,-,N/A,,Clear,0,2013-10-10 12:54:00
8:54 AM,53.1,46.9,80,30.15,9.0,SSE,3.5,-,N/A,,Clear,150,2013-10-10 13:54:00
9:54 AM,57.9,48.0,70,30.15,10.0,SSE,4.6,-,N/A,,Clear,160,2013-10-10 14:54:00
10:54 AM,63.0,46.9,56,30.14,10.0,South,6.9,-,N/A,,Clear,170,2013-10-10 15:54:00
11:54 AM,66.9,48.0,51,30.12,10.0,SSE,11.5,-,N/A,,Clear,160,2013-10-10 16:54:00
12:54 PM,69.1,46.9,45,30.10,10.0,SSE,15.0,-,N/A,,Clear,150,2013-10-10 17:54:00
1:54 PM,70.0,45.0,41,30.08,10.0,SSE,13.8,-,N/A,,Clear,160,2013-10-10 18:54:00
2:54 PM,71.1,46.9,42,30.06,10.0,SSE,10.4,-,N/A,,Clear,160,2013-10-10 19:54:00
3:54 PM,71.1,46.0,41,30.05,10.0,SSE,12.7,-,N/A,,Clear,160,2013-10-10 20:54:00
4:54 PM,70.0,46.0,42,30.05,10.0,South,10.4,-,N/A,,Clear,170,2013-10-10 21:54:00
5:54 PM,66.9,46.9,49,30.06,10.0,SE,4.6,-,N/A,,Clear,140,2013-10-10 22:54:00
6:54 PM,62.1,46.9,58,30.05,10.0,SE,4.6,-,N/A,,Clear,140,2013-10-10 23:54:00
7:54 PM,57.0,46.0,67,30.05,10.0,Calm,Calm,-,N/A,,Clear,0,2013-10-11 00:54:00
8:54 PM,55.9,46.0,69,30.04,10.0,SE,5.8,-,N/A,,Clear,130,2013-10-11 01:54:00
9:54 PM,55.0,46.9,74,30.04,10.0,SE,3.5,-,N/A,,Clear,130,2013-10-11 02:54:00
10:54 PM,54.0,46.0,75,30.04,10.0,East,4.6,-,N/A,,Clear,100,2013-10-11 03:54:00
11:54 PM,53.1,46.0,77,30.03,10.0,SE,4.6,-,N/A,,Clear,130,2013-10-11 04:54:00